RH
61 60 60 59 59 58 58 57 57 58 58 58 59 59 59 60 59 59 59 58 58 57 56 55 54 53 52 51 51 50 49 48 47 46 46 45 45 44 43 43 42 41 39 37 35 33 31 30 30 31 33 36 39 43 46 50 53 54 53 53 53 52 51 49 45 42 39 36 38
60 60 60 60 59 59 58 58 58 58 58 58 58 58 59 59 59 59 59 59 59 58 58 57 56 56 55 54 53 52 51 50 49 48 47 47 45 45 44 43 43 42 42 41 38 36 33 31 30 30 31 33 38 42 47 52 55 57 58 56 54 54 53 52 48 44 40 37 37
61 61 60 60 59 59 59 58 58 59 59 59 59 59 59 59 60 59 59 59 59 59 58 58 57 57 56 55 55 54 53 52 51 50 49 48 47 46 45 45 44 44 43 43 41 38 35 32 29 29 30 33 38 43 48 53 56 57 58 56 55 54 54 53 51 46 42 38 37
70 69 68 67 66 65 64 63 62 61 61 60 60 60 59 59 59 59 59 59 59 59 58 58 58 57 57 56 55 54 54 53 52 51 50 49 48 47 45 44 44 44 43 42 40 37 34 30 28 28 31 37 41 45 49 53 56 57 57 57 55 54 54 53 52 49 45 41 39
83 82 81 79 77 75 73 70 68 65 62 60 58 57 56 55 54 54 54 53 54 54 55 56 56 56 56 56 55 55 54 53 52 51 50 49 48 47 45 44 44 44 43 41 39 36 32 30 29 33 38 45 48 49 50 52 55 57 57 57 56 55 54 53 52 50 48 45 42
86 84 81 78 76 73 71 69 66 64 61 59 57 55 53 50 49 47 46 45 45 46 47 48 49 51 52 53 53 53 53 52 51 51 50 49 48 47 46 46 46 45 43 41 40 38 37 36 40 45 50 53 52 50 50 51 54 56 57 57 57 56 55 54 53 51 49 47 45
78 76 74 73 72 71 70 68 67 66 65 64 63 61 59 57 55 53 50 48 47 45 44 44 44 45 46 47 49 50 50 50 50 50 49 49 48 48 47 47 46 44 42 41 41 43 45 48 51 54 55 55 52 49 48 49 52 54 55 55 55 55 55 54 53 51 49 47 45
74 74 75 77 77 76 74 72 70 68 66 65 63 62 61 60 59 58 56 55 53 50 48 46 45 45 45 45 46 47 48 49 48 48 48 47 47 47 47 46 44 43 42 43 46 49 52 56 56 56 55 54 51 49 47 47 49 51 52 52 53 53 54 53 51 49 47 46 44
77 78 79 80 78 76 74 71 68 66 64 62 60 59 57 56 56 55 55 54 54 53 51 50 49 47 47 47 47 48 48 48 48 48 48 47 47 46 45 44 43 42 44 47 51 54 57 59 58 57 56 55 53 52 50 49 49 49 49 49 50 50 50 49 47 46 45 44 42
78 78 79 79 78 76 74 72 70 68 65 63 61 60 58 56 55 53 52 51 51 51 51 51 51 50 50 50 50 51 51 51 51 51 50 49 47 46 45 44 44 45 47 51 56 59 60 60 59 59 58 57 56 55 55 54 52 51 50 48 48 47 46 45 44 44 43 43 42
76 77 78 78 79 78 78 77 76 74 72 70 69 67 66 63 60 57 54 52 52 51 51 51 52 52 52 52 53 53 54 54 54 53 52 51 50 49 49 49 49 51 53 57 61 62 62 62 61 60 60 60 59 59 58 57 56 55 54 52 50 48 47 45 44 43 43 42 42
76 76 77 77 78 79 80 80 80 79 78 76 75 74 73 71 69 66 62 59 57 55 54 54 55 55 55 55 56 56 56 57 57 56 56 55 54 54 54 54 55 57 60 63 65 64 63 62 61 60 60 59 59 59 59 59 59 58 57 56 55 53 52 50 48 46 45 44 44
76 76 76 75 75 76 78 80 81 81 81 80 78 77 75 74 72 70 67 64 61 58 56 54 54 55 55 56 57 58 59 59 60 60 60 59 58 57 56 56 57 59 61 64 65 65 63 62 60 59 59 58 59 59 59 59 59 59 58 58 57 56 56 55 54 52 51 51 50
75 74 73 72 72 72 74 76 78 80 81 81 80 79 77 75 73 71 69 66 63 59 56 54 54 54 54 56 57 58 59 61 63 64 64 64 62 60 57 56 56 57 59 60 62 62 62 61 60 59 59 59 59 59 58 58 58 57 57 56 57 57 57 56 56 56 56 55 54
71 72 72 71 70 70 71 73 75 77 79 80 81 81 80 78 76 74 72 69 67 64 61 59 58 57 58 59 60 61 63 64 65 67 67 67 65 62 59 57 57 57 59 60 61 61 62 61 60 59 58 58 58 58 58 57 56 56 55 54 54 54 54 54 54 54 54 54 53
62 65 68 70 71 72 72 73 74 75 76 78 79 80 80 80 79 77 75 73 71 70 68 67 66 65 65 65 65 65 66 66 66 67 67 67 66 64 62 61 61 62 63 63 63 62 61 61 60 59 59 59 59 59 59 58 57 56 55 54 53 52 52 51 51 51 51 52 52
48 54 60 66 70 73 74 74 74 74 75 75 77 78 79 79 79 78 77 75 74 73 72 71 71 71 70 70 69 69 68 68 67 67 67 67 66 65 65 64 65 65 65 64 64 62 61 59 59 58 58 58 58 59 59 60 60 59 57 55 53 52 51 50 50 50 50 51 51
39 43 49 55 62 67 71 73 75 75 75 76 76 76 77 77 77 77 77 77 76 75 74 73 72 71 71 71 71 70 69 68 66 65 65 64 64 64 65 65 65 64 64 63 62 61 61 60 59 59 58 58 58 58 58 58 59 59 58 57 55 54 53 52 52 52 53 54 55
38 39 42 45 51 57 62 67 71 73 75 76 76 76 76 75 74 72 72 71 72 74 75 77 76 76 75 75 75 75 74 73 71 69 68 67 68 68 68 68 68 67 66 65 64 63 63 62 62 62 61 61 60 59 58 57 56 55 55 55 54 54 54 54 54 55 55 56 57
39 39 39 40 43 47 52 59 64 68 71 72 73 73 72 69 65 60 57 56 58 62 67 72 75 78 79 79 80 80 80 79 78 77 76 75 75 75 75 75 74 74 74 73 73 72 71 70 69 69 68 68 67 65 64 62 60 57 55 54 54 54 55 55 55 55 55 56 56
40 40 40 40 39 40 43 47 52 56 58 57 56 55 55 54 52 49 46 45 46 48 52 58 64 69 74 77 79 80 81 81 81 80 79 79 78 78 78 78 78 78 78 78 78 78 77 77 76 76 76 76 75 75 74 72 70 68 65 63 62 61 61 61 61 61 61 61 61
39 39 39 39 38 37 37 39 41 42 43 44 43 43 43 44 44 43 43 42 42 42 42 44 48 52 56 61 65 69 72 74 76 78 79 80 81 80 79 79 78 78 78 79 79 79 79 79 79 79 79 78 78 79 79 78 77 76 75 74 73 72 72 72 72 72 72 72 72
34 34 34 34 33 32 32 31 32 33 35 37 38 39 39 40 40 40 40 39 39 39 38 38 39 39 40 41 42 45 47 50 54 59 64 68 71 73 73 73 72 71 70 70 72 74 75 75 75 74 72 70 69 69 70 72 73 75 76 76 76 77 77 78 78 78 78 78 78
26 25 25 24 23 22 22 21 22 23 25 27 28 29 30 30 30 31 31 31 30 30 30 30 30 29 28 27 26 25 25 26 29 32 36 39 43 45 47 48 48 46 45 45 47 49 50 52 52 50 49 47 45 46 47 50 52 54 56 58 60 63 65 67 69 70 72 72 74
16 16 15 14 13 13 13 13 13 13 14 15 16 16 17 17 17 17 17 17 17 17 17 18 17 17 17 16 15 14 14 15 16 17 18 19 20 22 23 25 25 24 23 22 22 23 23 22 22 22 21 20 19 18 17 17 18 20 23 26 28 30 30 30 29 29 31 35 41
10 10 10 10 10 10 9 9 9 9 9 9 10 10 10 10 10 10 10 10 10 10 10 10 10 10 10 10 11 11 12 12 13 13 14 15 16 17 18 21 23 22 19 16 15 15 15 14 13 13 13 12 12 12 12 12 12 12 12 12 12 13 13 13 14 14 14 14 14
9 9 9 9 9 9 9 9 9 9 9 9 9 9 9 10 10 10 10 10 10 10 10 10 10 11 11 11 11 12 12 13 13 14 15 16 17 19 21 24 27 27 25 20 17 17 17 17 16 15 14 14 14 14 13 13 13 14 14 14 14 14 14 14 14 14 14 14 14
10 10 9 10 9 10 10 10 10 10 10 10 10 10 10 11 11 11 11 11 11 12 12 12 12 13 12 13 13 13 14 14 15 15 16 16 17 19 21 24 28 30 29 25 21 18 18 17 17 16 15 15 14 14 14 14 14 14 14 14 14 14 14 14 14 14 14 14 14
10 10 10 10 10 10 10 10 10 10 10 11 11 11 11 11 11 12 12 12 12 13 13 14 14 14 13 14 14 14 14 15 15 16 16 17 17 18 20 22 27 29 30 28 25 21 18 17 17 16 16 15 14 14 14 14 14 14 14 14 14 14 14 14 14 14 14 14 14
9 10 10 10 10 10 10 10 11 11 11 11 11 11 12 12 12 12 12 13 13 13 14 14 14 14 14 15 15 15 15 15 15 16 16 17 17 18 19 20 24 28 31 30 29 25 21 17 17 16 16 15 14 14 13 13 14 14 14 14 14 14 14 14 14 14 14 14 14
10 10 10 10 10 10 11 11 11 11 12 12 12 12 12 12 13 13 13 13 14 14 14 15 15 15 15 15 15 15 16 16 16 16 16 17 17 17 18 18 21 26 30 30 30 28 25 20 17 16 15 15 14 13 13 13 13 13 13 14 14 13 14 14 14 14 14 14 14
10 11 11 11 11 11 11 11 12 12 12 12 13 13 13 13 13 14 14 14 15 15 15 15 15 15 15 15 15 15 15 16 16 16 16 16 17 17 17 16 18 22 27 29 28 27 26 22 18 15 14 14 13 13 13 13 13 13 13 13 13 14 14 14 14 14 14 14 14
11 11 11 11 11 11 11 12 12 12 12 13 13 13 14 14 14 14 15 15 15 15 16 16 16 16 16 16 15 15 15 15 15 15 15 15 16 16 16 16 16 20 25 28 26 26 26 24 20 16 14 13 13 12 12 12 12 13 13 13 13 14 14 14 14 14 14 15 15
12 12 12 12 12 12 12 12 12 13 13 13 13 14 14 15 15 15 15 16 16 16 16 16 16 16 16 16 15 15 15 15 15 15 14 15 15 15 16 16 16 20 24 27 27 27 27 26 24 20 16 14 13 13 13 13 13 14 14 14 14 14 14 15 15 15 15 16 16
12 12 12 12 12 12 13 13 13 13 14 14 14 15 15 15 16 16 16 16 16 16 16 16 16 16 16 15 15 15 15 15 15 14 15 15 15 16 16 16 17 21 25 27 27 27 27 27 26 23 20 15 14 14 14 15 16 16 16 16 16 16 16 16 16 16 17 17 17
13 13 13 13 13 13 13 14 14 14 15 15 15 15 16 16 16 16 16 16 17 17 16 16 16 16 16 16 15 15 15 15 15 15 15 15 16 17 17 18 18 21 24 26 26 26 26 26 26 25 21 16 15 15 16 17 18 18 18 18 18 18 18 18 18 18 18 19 19
13 13 13 13 14 14 14 15 15 15 15 16 16 16 16 16 16 16 16 16 17 17 16 16 16 16 16 16 16 16 16 16 16 16 16 16 17 17 18 18 18 19 21 25 26 26 26 26 26 24 21 15 15 16 16 17 18 18 18 18 18 18 18 18 18 18 19 19 20
14 14 14 15 15 15 15 16 16 16 16 16 16 17 17 17 17 16 16 16 17 17 17 17 17 17 17 17 17 17 17 18 17 17 17 16 16 16 17 17 17 16 17 21 24 25 25 25 26 23 19 15 15 15 16 16 17 17 17 17 17 17 17 17 17 17 18 18 19
15 16 16 16 16 16 16 17 17 17 17 17 17 17 17 17 17 17 17 17 17 17 17 17 18 18 18 18 19 18 18 18 17 16 16 15 15 15 15 15 15 14 15 16 19 21 23 23 24 21 18 15 15 15 15 16 16 16 16 16 16 17 17 17 17 17 17 17 17
16 17 17 17 17 17 17 17 17 17 18 17 18 18 17 17 17 17 17 17 17 18 18 18 18 18 18 18 18 17 17 16 16 15 15 14 14 14 14 14 14 14 14 14 16 19 21 21 21 20 18 15 15 15 15 16 16 16 16 16 16 16 16 17 17 17 16 16 16
18 18 18 18 18 18 18 18 18 18 18 18 18 18 18 18 18 18 18 18 18 18 18 18 18 18 17 17 17 16 16 15 15 14 14 14 14 14 14 14 14 14 14 14 15 17 19 19 19 19 18 16 16 16 16 16 16 16 16 16 16 16 16 16 16 16 16 16 15